User: anonymous   Login
Location: Unspecified
(0.0000°N, 0.0000°E)
Time: 07:48:31
(UTC+01:00)
Language:

ARIANE 5 R/B - Orbit

View from above orbital plane
View from above orbital plane
View from above satellite
View from above satellite

Ground track
Ground track

The orbit data is extracted from the following two-line orbital elements,

1 28379U 04027B   16343.73248287 -.00000126 +00000-0 +35719-3 0  9998
2 28379 007.2864 031.3269 7280468 307.7269 029.8707 02.07927800094169
Epoch (UTC): 08 December 2016 17:34:46
Eccentricity: 0.7280468
inclination: 7.2864°
perigee height: 673 km
apogee height: 38429 km
right ascension of ascending node: 31.3269°
argument of perigee: 307.7269°
revolutions per day: 2.07927800
mean anomaly at epoch: 29.8707°
orbit number at epoch: 9416

The dashed part of the orbit path shows where the satellite is in the earth's shadow,  

DLR